THOR ABLESTAR DEB, 3810

Orbit data source: Space-Track

THOR ABLESTAR DEB, 3810 is space debris in LEO originally from a launch on Fri, 13 Aug 1965 UTC launched from the Air Force Western Test Range (AFWTR). Debris objects in space refer to the collection of defunct objects orbiting the Earth. Examples of debris include non-operational satellites, rocket bodies, and fragments generated from explosions, collisions, or faulty payload assembly.

Loading next visibility...
Identifier
3810, 1965-065P
Orbit
LEO
Last TLE update
18 hours ago
Origin
Manufacturer
Unknown
Mission
Spacecraft
Bus & Motor
Unknown
Mass
Unknown
Launch date (UTC)
1965-08-13 (60 years ago)
Launch vehicle
Unknown
Launch site
Air Force Western Test Range (AFWTR)
Object type
Payload
Rocket body
Debris
Shape & HBR
Unknown
Radar Cross Section
Small (<0.1 m²)

Expand to show TLE details & history

TLE from 18 hours ago
0 THOR ABLESTAR DEB
1  3810U 65065P   25181.61485193  .00000323  00000-0  47498-3 0  9991
2  3810  89.9751 216.4406 0056947 224.4053 255.3552 13.51795170211377
Epoch: 2025-06-30T14:45Z
TLE epoch observation values (Epoch: 2025-06-30T14:45:23.206Z)
Latitude
60.95826°
Longitude
-103.87283°
Altitude
1,087.096 km
Speed
7.309 km/s
True Right ascension
02h 25m 35s
True Declination
60° 49' 07"
Sunlit
Object was in daylight at epoch
Visualization orbit readout
Latitude
87.00705°
Longitude
-104.30387°
Altitude
1,106.218 km
Speed
7.293 km/s
Apparent Right ascension
07h 43m 32s
Apparent Declination
34° 19' 49"
Sunlit
Object is in daylight
Visualization observer readout
Local Sidereal Time
20:01:36
Azimuth
3.873° NNE
Elevation
-15.637°
Doppler factor
1
Orbital elements
Apogee altitude
1,105.081 km
Perigee altitude
1,020.335 km
Semi-major axis
7,440.845 km
Eccentricity
0.00569
Inclination
89.9751°
RAAN
216.4406°
Arg. of periapsis
224.4053°
True anomaly
Unknown
Mean anomaly
255.3552°
Eccentric anomaly
Unknown
Mean motion
3.3815 °/min
Orbital period
106.46 mins
BSTAR
0.00047498
Loading maneuver chart data...
Loading SW <> Apogee altitude chart data...
Loading historical data...
Loading historical data...
Loading historical data...
Loading historical data...
Loading historical data...
Loading historical data...
Loading historical data...

THOR ABLESTAR DEB Visibility forecast

Observer location: undefined°, undefined°

Span
Click to sort rows by Start time (UTC) header in descending order
Start Az.
Max El. time (UTC)
Max El. Az.
Max El.
End time (UTC)
End Az.
11 mins2025-07-01 13:51:29.997Z19.571° NNE2025-07-01 13:57:29.997Z91.262° ESE31.56°2025-07-01 14:02:29.997Z148.961° SSE
9 mins2025-07-01 15:39:29.997Z333.087° NNW2025-07-01 15:43:29.997Z280.55° WNW28.783°2025-07-01 15:48:29.997Z224.221° SW
10 mins2025-07-02 01:49:29.997Z135.19° SSE2025-07-02 01:53:29.997Z86.185° E31.6°2025-07-02 01:59:29.997Z15.832° NNE
10 mins2025-07-02 03:35:29.997Z218.655° SW2025-07-02 03:40:29.997Z281.601° WNW29.939°2025-07-02 03:45:29.997Z336.547° NNW
|